Weather Roundup
Issued by NWS Chicago, IL

Home | Current Version | Previous Version | Text Only | Print | Product List | Glossary On
Versions: 1 2 3 4 5 6 7 8 9 10 11 12 13 14 15 16 17 18 19 20 21 22 23 24 25 26 27 28 29 30 31 32 33 34 35 36 37 38 39 40 41 42 43 44 45 46 47 48 49 50
000
NZUS59 KLOT 090512
HRRLOT

CHICAGO AREA WEATHER ROUNDUP
NATIONAL WEATHER SERVICE CHICAGO/ROMEOVILLE IL
1100 PM CST THU DEC 08 2016

NOTE: "FAIR" INDICATES FEW OR NO CLOUDS BELOW 12,000 FEET WITH NO
SIGNIFICANT WEATHER AND/OR OBSTRUCTIONS TO VISIBILITY.

* THESE STATIONS ARE NOT UNDER NWS QUALITY CONTROL. THEY ALSO MAY NOT
  REPORT WEATHER SUCH AS PRECIPITATION OR FOG.

ILZ005-006-012>014-019>023-090600-
NORTHEAST ILLINOIS

CITY           SKY/WX    TMP DP  RH WIND       PRES   REMARKS
OHARE          PTCLDY    22  16  78 W10       30.40R WCI  11
MIDWAY         PTCLDY    23  14  68 W10       30.42R WCI  12
AURORA         CLOUDY    23  17  78 W15       30.43S WCI  10
LANSING*       CLEAR     22  18  85 W10       30.42S WCI  11
JOLIET*        CLOUDY    24  19  78 W10G16    30.45R WCI  14
WAUKEGAN       CLOUDY    22  16  78 W7        30.37R WCI  13
DUPAGE AIRPORT CLEAR     21  15  78 W13       30.41R WCI   9
WHEELING       CLEAR     22  15  75 W9        30.41R WCI  12
KANKAKEE*      MIX PCPN  23  16  74 W14       30.46R WCI  11
MORRIS*        FLURRIES  23  17  79 W14       30.45R WCI  11
LEWIS AIRPORT* CLEAR     22  19  90 W13       30.43S WCI  10
NORTHERLY ISL    N/A     24  17  74 W8          N/A  WCI  15
$$

WIZ051-052-058>065-066-070>072-090600-
SOUTHEAST WISCONSIN

CITY           SKY/WX    TMP DP  RH WIND       PRES   REMARKS
MILWAUKEE      MOCLDY    25  15  66 W13       30.36R WCI  14
KENOSHA*       CLOUDY    22  16  78 W15       30.37R WCI   9
RACINE*        CLOUDY    24  15  68 W13G22    30.38R WCI  12
BURLINGTON     MOCLDY    26  22  85 W12       30.38R WCI  15
WAUKESHA       CLOUDY    21  18  86 W14       30.37R WCI   8
WEST BEND      CLOUDY    25  19  80 NW14G20   30.35R WCI  13
$$

INZ001>003-010>013-019-020-090600-
NORTHWEST INDIANA

CITY           SKY/WX    TMP DP  RH WIND       PRES   REMARKS
GARY*          PTCLDY    24  18  75 W8        30.42S WCI  16
MICHIGAN CITY* NOT AVBL
RENSSELAER*    NOT AVBL
VALPARAISO     CLOUDY    24  16  71 MISG      30.41R
$$

LMZ740>746-090600-
SOUTHERN LAKE MICHIGAN

STATION/POSITION TIME  SKY/WX   TEMP WIND        PRES    VSBY
                                AIR  DIR/SP/G
                 (UTC)          (F)  (DEG/KT/KT) (MB)    (MI)
HARRISON CRIB    0440            25  270/ 18/ 22   N/A
BURNHAM HARBOR   0500            24  260/  8/ 14   N/A
CALUMET HARBOR   0442            23  240/  8/ 12 1028.9R
BURNS HARBOR     0440            27  280/ 16/ 23 1029.5S
MICHIGAN CITY    NOT AVBL
$$

ABBREVIATIONS USED IN REMARKS
   TC - TEMPERATURE IN CELSIUS
  WCI - WIND CHILL INDEX
   HX - HEAT INDEX
  VSB - VISIBILITY
$$



USA.gov is the U.S. government's official web portal to all federal, state and local government web resources and services.